PulseSat

PulseSat

GSAT0212 (GALILEO 16)

Last updated on April 21, 2019, 3:01 a.m. UTC

1 41860U 16069B   19109.60843267  .00000025  00000-0  00000+0 0  9993
2 41860  54.5943 173.6470 0004359 302.1621  57.8819  1.70473841 15060
UTC
Height (km)
Latitude
Longitude
Inclination
Orbital Period

Next 30 passes for location: Hong Kong

Rise time Rise Azimuth (degrees) Set time Set Azimuth (degrees) Duration Max altitude (degrees)

No matching passes for this satellites

PulseSat

PulseSat is the new satellites software and hardware trackering solution by Pulsely.
Satellite Two Line Element Set source: US Air Force Space Command

Download PulseSat for iOS
© 2017 Pulsely Limited